GFSFLT1_sfc_temp_000.txt.gz
Temp
94 91 92 91 89 88 88 88 87 86 84 83 84 84 82 81 81 85 84 83 81 83 82 83 80 80 80 80 80 80 79 80 81
92 90 91 91 90 90 88 88 86 85 84 83 83 84 82 81 81 80 81 80 80 84 80 83 82 80 79 79 80 79 77 80 79
91 90 91 92 91 89 89 89 88 87 85 83 84 84 83 84 82 81 81 80 79 79 80 80 79 80 80 80 80 79 78 78 77
90 90 91 92 92 90 89 90 88 87 85 84 83 84 83 82 82 82 81 80 81 80 80 79 79 79 79 79 79 79 77 77 78
92 91 92 92 92 90 88 88 88 88 87 86 86 85 83 82 81 81 80 80 81 81 79 80 79 79 79 79 79 79 77 76 76
90 90 90 90 90 88 87 87 87 88 88 89 89 85 84 82 80 80 79 79 80 81 80 79 80 79 78 78 79 78 77 76 75
90 88 88 88 88 88 87 87 85 85 86 89 88 86 84 81 80 80 80 80 80 80 80 79 79 79 78 79 78 78 77 76 75
87 85 86 86 87 87 86 85 85 85 86 86 85 83 82 81 81 81 80 79 79 80 80 80 79 79 79 80 80 82 76 75 75
86 85 84 86 86 86 85 85 84 85 85 85 84 81 81 82 81 80 80 80 79 79 79 79 79 79 79 78 81 63 65 68 75
86 86 86 85 86 86 85 86 86 85 85 86 83 81 81 81 81 80 80 80 79 78 78 79 78 78 78 77 78 65 64 65 75
86 87 86 86 89 88 86 90 90 87 87 83 81 80 81 81 81 80 80 79 78 78 79 77 77 77 78 78 79 63 63 64 74
86 87 88 89 91 89 89 89 89 86 84 83 82 81 81 82 82 80 79 78 78 78 77 77 77 78 77 77 77 61 61 63 75
86 88 90 88 88 91 90 88 91 85 83 82 81 82 82 83 83 81 79 79 78 78 78 78 81 79 79 74 77 65 59 64 70
87 88 87 88 89 89 88 88 87 84 83 81 84 85 85 84 82 80 79 79 78 77 76 77 77 77 78 78 76 75 58 56 72
86 86 87 88 88 88 89 87 84 81 80 83 84 84 83 81 77 80 84 77 77 77 74 70 75 75 77 80 80 60 57 53 53
87 87 88 90 88 86 85 84 81 79 80 82 83 80 77 73 73 80 80 76 74 76 74 75 69 75 77 76 81 80 58 58 53
85 86 85 86 84 82 81 82 80 79 81 79 77 77 74 73 77 77 77 77 80 79 77 71 72 73 77 77 78 79 73 72 75
83 83 83 82 82 82 81 80 78 79 78 77 77 77 75 77 80 77 77 73 72 76 61 64 67 74 74 73 72 69 48 49 63
82 81 80 80 79 79 77 77 76 76 77 77 77 76 78 79 79 79 79 78 70 47 48 45 43 43 52 68 49 43 41 41 41
68 79 78 77 77 76 76 76 75 75 75 76 75 75 75 78 72 78 76 70 68 54 50 46 43 43 43 41 41 42 42 42 42

GFSFLT1_sfc_temp_003.txt.gz
Temp
99 97 98 97 96 94 92 92 90 90 86 84 86 86 85 84 84 86 86 86 83 84 84 85 83 82 82 81 81 81 81 81 82
98 97 97 97 97 95 92 91 89 88 86 85 86 87 84 84 83 82 82 82 82 85 83 86 84 82 81 82 82 81 80 82 80
97 99 97 97 97 94 93 93 91 90 88 85 86 87 86 87 85 84 83 82 81 81 81 82 81 81 82 82 81 81 80 80 81
97 98 96 96 96 95 93 93 92 90 89 87 86 86 86 85 84 85 84 82 82 82 82 81 81 81 80 81 80 81 79 77 78
97 98 96 96 97 95 93 91 92 91 91 89 88 89 86 85 84 83 83 82 82 82 81 82 81 81 80 80 81 80 79 77 78
96 95 95 95 97 94 92 91 90 91 92 92 92 89 87 85 83 82 81 81 82 82 81 81 81 81 80 79 80 79 78 78 76
96 95 94 94 94 94 92 90 89 89 90 93 93 91 88 85 83 82 82 82 82 82 82 81 80 80 80 80 80 80 80 78 76
94 93 94 93 93 93 90 89 88 88 89 89 91 88 86 84 84 83 82 81 81 82 82 81 81 80 81 81 82 84 77 78 77
92 93 93 93 93 92 90 88 87 87 87 88 88 85 84 84 84 83 82 82 82 82 81 81 81 80 80 80 83 66 67 71 75
91 93 93 92 92 91 89 89 88 87 87 88 86 84 84 84 83 82 82 82 82 80 80 81 80 79 79 79 80 64 67 69 74
91 93 94 93 93 92 92 92 91 90 90 87 85 83 83 83 83 82 82 82 80 80 80 79 78 79 79 79 80 63 64 66 73
92 92 94 95 95 95 92 91 91 89 88 87 85 83 82 83 83 82 82 81 80 80 80 79 78 79 75 78 76 61 61 65 75
92 93 94 93 94 94 91 91 93 89 87 86 84 84 84 85 84 83 82 81 80 81 80 79 81 79 80 72 78 69 59 64 76
93 93 93 93 93 90 90 91 92 88 87 85 86 87 87 85 84 83 82 81 68 70 78 78 77 77 77 77 71 66 58 57 73
92 91 91 92 90 90 91 91 89 86 85 87 87 86 85 85 83 84 85 78 77 79 77 75 73 73 76 62 66 64 59 56 55
92 91 91 93 91 89 90 90 88 84 84 85 84 84 83 83 82 82 81 79 76 78 76 73 61 70 70 74 72 70 61 58 56
91 91 91 92 90 89 87 88 86 83 83 84 83 82 81 80 79 77 80 76 82 78 75 68 78 74 72 65 73 70 71 72 72
88 88 89 88 86 85 84 84 83 84 83 82 79 80 80 79 81 79 77 77 73 75 64 63 71 72 72 72 72 65 48 49 63
86 83 84 79 79 84 81 81 80 80 81 80 79 79 80 81 82 82 82 70 71 47 48 44 42 43 52 64 48 44 42 43 42
73 82 76 82 81 81 81 80 79 79 79 79 78 77 78 81 76 80 74 73 70 68 57 46 44 44 45 44 43 43 43 45 46

GFSFLT1_sfc_temp_009.txt.gz
Temp
89 82 89 86 85 85 83 82 80 79 76 72 72 72 71 71 71 70 69 69 68 68 67 68 70 70 71 71 71 70 69 68 67
86 87 87 87 86 85 84 81 79 77 76 73 72 72 71 71 71 71 69 70 70 68 69 72 71 72 71 70 70 69 68 66 66
80 82 88 88 85 85 84 82 80 78 77 76 74 72 72 72 71 71 70 70 69 69 69 70 70 70 70 70 69 69 68 66 67
81 83 82 79 82 85 83 82 79 78 77 76 74 73 72 72 71 71 70 70 70 69 69 70 70 70 69 69 68 68 67 67 67
83 83 83 84 86 84 84 81 78 77 78 75 73 73 73 71 71 71 70 69 70 70 69 70 70 69 68 68 69 68 67 67 68
80 83 82 80 75 82 83 81 78 76 78 77 75 75 73 71 71 71 70 70 70 70 70 69 69 69 68 68 68 68 68 66 66
80 80 80 84 82 84 83 82 79 76 78 79 79 77 75 72 71 70 70 70 70 70 69 69 68 68 68 68 68 68 68 67 65
81 80 79 78 79 82 82 81 78 75 79 77 80 77 75 74 72 70 70 70 70 70 69 69 69 68 68 68 69 73 68 69 69
79 78 81 81 79 79 82 81 77 76 76 75 76 76 75 73 72 70 69 69 69 68 69 69 68 68 68 68 72 69 70 67 64
79 78 79 78 78 77 82 81 78 75 70 69 71 70 73 74 74 71 70 70 69 68 68 68 68 67 67 67 66 66 66 67 63
80 80 81 79 79 76 82 79 73 72 72 69 69 69 70 72 70 70 70 68 68 68 67 67 66 66 67 66 67 64 63 63 61
79 80 78 79 79 76 81 77 77 75 70 70 70 68 71 71 71 70 68 67 67 67 67 66 66 67 66 65 64 60 59 60 60
81 83 81 79 80 77 80 79 78 71 68 68 68 69 71 70 70 69 68 68 68 68 67 67 65 65 65 64 61 60 59 59 58
81 80 81 79 76 75 78 80 74 69 67 66 70 71 70 71 70 70 70 69 67 67 66 61 61 63 64 64 63 59 58 57 57
79 79 79 79 74 73 74 75 70 66 66 70 71 72 72 71 71 74 74 68 68 67 64 62 61 61 62 60 62 57 57 57 54
75 77 77 77 73 70 70 69 68 64 59 60 66 71 71 71 72 72 70 67 66 63 63 62 61 60 59 58 58 57 57 56 56
69 70 66 65 65 62 61 62 62 62 62 62 61 64 69 70 70 68 68 64 62 61 60 59 59 59 57 57 55 51 51 53 53
64 64 65 65 64 63 61 61 61 62 64 64 61 62 66 67 66 64 58 54 54 59 49 51 55 53 54 53 51 50 45 46 49
64 63 64 63 62 62 61 62 63 63 66 64 61 62 65 64 64 61 58 54 50 46 46 43 43 44 51 49 48 45 44 44 43
64 64 64 64 63 63 62 62 61 63 63 66 67 65 63 63 61 62 60 55 52 48 47 46 44 45 46 48 47 46 44 45 44

GFSFLT1_sfc_temp_015.txt.gz
Temp
80 79 80 79 79 79 79 79 78 78 75 74 72 70 68 66 65 65 64 63 63 63 63 64 65 65 66 66 67 66 65 63 63
78 79 79 79 80 79 80 79 78 78 76 75 71 72 68 66 65 66 64 64 64 64 63 66 66 66 66 66 66 66 65 63 63
78 80 79 80 80 79 80 81 80 79 78 75 71 68 69 69 66 68 67 65 65 65 65 66 65 65 66 66 66 65 64 63 63
80 80 79 80 80 81 80 81 80 78 77 74 69 69 66 65 65 66 65 65 65 65 64 65 65 65 65 65 65 65 63 63 63
79 81 80 81 81 81 80 79 80 78 77 74 71 71 67 65 65 65 66 65 66 65 65 64 65 65 65 65 65 64 63 63 63
74 76 78 79 80 80 81 79 79 78 76 75 72 70 67 65 66 67 68 67 66 66 65 65 66 65 64 64 65 64 64 63 63
73 76 77 78 79 79 81 80 78 77 76 76 73 71 68 67 67 67 69 69 67 66 65 65 64 64 65 65 65 65 64 63 63
70 72 75 76 78 78 78 77 76 75 75 75 74 70 68 68 67 67 70 69 69 68 67 67 66 65 65 64 65 67 64 64 63
72 69 73 74 76 73 72 75 74 74 74 74 72 71 69 67 67 66 68 68 68 68 65 67 65 64 64 64 67 66 65 65 62
74 72 70 70 71 70 70 71 74 73 73 73 70 70 68 67 67 67 67 69 68 67 68 66 66 65 64 64 64 63 63 65 61
72 73 73 71 70 70 72 74 74 73 71 70 69 67 67 67 67 66 67 70 69 68 67 65 66 65 63 63 64 61 61 63 61
73 73 72 72 72 70 70 71 71 70 67 68 68 67 67 67 68 67 67 67 67 67 66 64 64 63 61 62 62 59 59 59 59
72 73 74 72 71 71 69 69 70 68 66 67 67 67 66 67 68 69 67 68 66 66 65 66 63 61 62 61 63 60 57 57 57
71 72 73 71 68 72 70 68 68 63 64 64 64 65 65 65 65 65 65 65 65 64 63 61 61 61 62 62 61 61 56 55 56
71 72 74 71 69 65 67 66 66 63 62 63 64 65 64 62 64 66 65 64 62 61 61 62 60 60 60 60 59 55 54 53 54
68 68 67 65 63 62 62 63 64 62 60 61 62 61 60 61 61 63 63 62 60 59 59 61 60 59 57 56 55 52 52 52 52
63 62 61 62 62 60 58 59 60 60 61 62 62 61 61 61 61 60 60 61 60 60 61 60 58 57 56 54 52 51 50 51 49
63 62 60 60 59 59 58 60 61 61 61 62 61 60 60 60 61 61 60 52 51 56 52 53 57 56 55 53 50 51 48 47 48
63 62 61 60 59 60 60 60 60 60 60 61 59 58 57 57 58 58 57 53 49 46 45 43 43 47 50 48 48 46 44 43 42
60 62 60 60 60 60 59 59 59 60 60 60 58 57 57 56 57 57 56 52 49 48 47 43 41 43 44 46 45 44 43 41 42

GFSFLT1_sfc_temp_021.txt.gz
Temp
89 88 88 88 87 86 85 85 84 83 81 80 81 81 81 81 81 82 78 80 82 80 82 82 80 79 79 78 78 78 76 78 78
87 88 88 88 89 87 87 85 83 83 82 81 82 82 81 80 81 80 80 79 76 80 78 81 79 79 77 77 77 77 77 79 77
88 89 89 89 90 88 88 87 86 85 83 81 82 82 82 82 80 79 80 77 72 76 78 78 78 77 78 77 77 77 76 77 77
90 90 88 89 89 89 88 88 87 86 84 83 83 82 82 81 80 78 73 77 71 71 73 74 76 75 76 77 77 77 75 75 76
89 89 89 89 89 88 88 87 88 86 87 86 85 84 82 79 76 71 76 77 75 71 71 72 73 73 75 76 77 77 75 75 76
85 83 85 86 88 86 86 86 85 87 87 88 88 85 82 78 71 75 72 71 71 70 71 70 71 72 73 74 76 75 75 75 75
85 82 83 83 85 85 85 85 84 85 86 89 88 86 81 76 73 73 74 72 69 67 67 68 69 70 71 73 74 75 75 75 74
81 80 82 82 83 84 83 83 83 84 85 86 87 82 80 77 73 74 73 72 70 67 67 71 71 70 71 73 74 77 75 75 75
82 81 82 83 83 83 82 82 82 83 83 84 84 80 78 76 73 73 73 73 72 70 67 68 70 69 70 73 76 69 67 72 76
83 83 84 83 83 82 82 83 83 82 82 83 80 79 77 73 73 73 73 74 71 71 69 70 71 71 71 73 73 66 65 66 76
84 86 86 85 85 85 84 86 85 83 83 80 78 77 75 74 73 73 74 73 71 71 71 71 73 73 73 73 75 64 62 64 73
84 83 82 83 87 86 83 84 83 81 80 79 78 76 74 74 74 73 72 71 71 72 70 72 73 74 73 73 74 59 59 61 65
83 85 83 82 83 84 84 82 83 80 78 77 76 76 75 75 74 73 72 72 71 72 71 71 76 74 73 69 72 58 57 60 62
82 81 80 82 83 82 80 81 80 78 77 76 78 78 76 74 74 73 73 71 71 70 70 72 72 72 71 70 70 63 56 56 60
77 78 80 81 77 76 77 78 79 76 76 77 76 73 73 72 72 73 73 71 71 71 70 70 69 68 65 73 72 58 56 55 55
76 75 76 79 78 75 75 76 76 74 68 71 73 74 72 70 71 71 71 69 70 69 69 70 68 64 67 71 67 65 53 52 52
74 74 74 77 77 75 72 73 70 72 72 73 73 72 71 72 71 70 70 71 73 71 71 70 69 67 70 65 64 68 65 64 65
73 73 71 71 71 71 68 70 70 71 70 69 72 72 72 71 70 69 64 60 61 69 67 64 71 70 67 65 69 69 61 62 69
72 71 70 71 70 71 68 67 69 70 70 70 71 70 71 71 71 69 65 63 60 45 45 44 45 46 61 65 51 46 47 46 44
63 70 69 68 70 70 70 71 71 70 70 72 71 71 70 72 70 67 63 62 65 64 53 43 42 43 45 48 47 43 42 42 40

GFSFLT1_sfc_temp_024.txt.gz
Temp
102 99 98 97 96 96 95 94 93 91 89 86 87 87 87 87 86 89 89 88 91 91 91 90 86 83 85 85 84 83 82 83 83
99 100 99 99 99 98 96 95 93 91 89 87 88 88 87 86 86 86 89 88 87 90 88 90 86 85 82 83 83 83 81 83 82
101 102 101 101 100 99 98 97 95 92 90 87 88 89 88 88 87 87 87 85 84 86 85 85 83 83 83 82 81 81 80 83 82
103 104 103 102 101 101 99 98 97 94 92 89 88 90 89 88 88 88 84 85 85 84 82 79 79 80 81 80 80 81 79 80 81
105 105 105 104 103 100 100 96 98 96 95 93 92 92 89 88 88 87 84 83 81 82 80 79 76 75 75 76 80 81 80 79 82
101 97 97 100 101 98 97 96 95 97 96 97 97 93 91 89 87 85 82 81 82 79 79 79 72 74 74 76 79 79 79 79 78
101 98 95 96 96 97 96 95 94 94 96 99 98 96 92 88 85 83 84 83 79 80 80 78 75 74 76 76 78 78 80 79 79
100 96 93 93 94 95 94 93 93 92 95 95 97 93 92 88 85 83 82 83 81 81 80 79 77 73 75 77 78 82 79 80 78
98 97 94 93 92 94 92 92 91 92 92 93 93 91 90 87 84 81 82 81 79 78 79 76 76 76 77 78 81 72 69 76 80
97 99 97 95 93 93 92 93 92 91 90 92 89 89 87 85 83 80 80 81 79 78 76 78 78 76 77 78 79 66 66 69 79
98 99 101 99 99 96 94 96 94 92 92 89 87 86 85 84 82 80 80 79 78 77 77 77 76 77 77 78 79 65 64 66 75
97 98 100 100 101 99 94 94 92 90 89 88 86 84 84 83 82 80 79 78 78 78 77 76 75 76 76 75 77 62 61 65 74
94 96 97 94 96 96 94 93 93 88 87 85 84 85 84 84 83 81 79 77 77 77 78 74 78 76 77 71 78 58 58 66 72
92 92 93 94 93 91 90 91 90 86 86 85 87 88 85 83 82 79 77 77 77 77 76 74 75 76 75 76 74 74 56 57 70
87 87 88 90 87 86 87 87 87 85 84 85 86 85 83 81 79 79 77 75 74 73 71 70 72 74 71 72 76 63 55 54 56
86 87 87 88 85 82 84 85 85 81 80 82 82 82 79 77 75 76 76 73 72 70 70 70 69 70 69 72 73 69 54 52 53
85 86 87 88 85 83 80 81 82 80 80 80 79 77 75 74 72 71 72 73 72 71 68 67 67 69 72 69 69 66 70 69 58
82 81 83 84 84 82 80 80 79 80 78 79 76 76 76 72 70 69 66 63 63 71 65 65 73 76 74 71 72 74 61 62 77
78 76 80 79 79 79 77 78 76 76 79 78 78 77 76 77 77 78 79 75 69 45 47 45 46 48 65 59 51 47 47 47 44
71 79 78 77 76 78 79 77 76 79 75 78 79 80 79 80 78 80 78 78 77 74 57 44 43 43 45 47 46 44 43 42 41

GFSFLT1_sfc_temp_027.txt.gz
Temp
106 103 103 102 101 100 100 98 96 95 92 88 89 89 88 88 88 90 91 90 93 93 94 94 87 86 84 85 85 84 83 84 84
104 105 104 103 103 102 101 98 96 94 92 89 89 90 88 88 88 88 90 89 89 93 92 94 88 86 85 84 84 84 83 81 83
104 106 106 106 104 102 102 101 99 97 94 90 90 91 90 90 89 88 89 91 89 89 90 90 88 85 83 83 81 82 80 81 82
105 107 107 107 106 105 103 102 101 98 95 93 91 91 90 89 90 90 89 90 89 88 89 87 85 83 83 82 79 81 79 80 82
107 108 109 109 108 107 105 102 102 100 99 95 93 93 91 90 90 90 89 88 89 88 86 85 84 83 82 82 82 80 78 78 83
104 105 104 106 109 106 105 103 99 101 100 100 98 94 93 91 90 89 88 88 88 88 85 83 83 82 81 81 79 79 79 79 79
103 104 104 103 103 107 105 103 98 98 100 102 100 97 95 90 89 88 89 89 87 86 84 82 81 81 81 80 79 81 79 81 80
101 102 104 101 100 103 102 100 98 97 100 99 101 97 95 92 90 89 89 87 86 84 84 82 82 81 80 80 81 84 79 82 80
100 101 103 103 100 100 100 99 98 97 97 99 99 95 94 92 90 88 86 86 86 83 83 82 82 81 79 79 83 73 71 77 80
99 100 103 104 101 98 99 99 97 96 95 98 95 95 93 92 89 86 84 85 84 81 81 81 80 80 79 80 81 66 68 70 81
100 102 103 105 106 102 101 102 101 98 97 94 92 91 92 91 88 85 82 83 83 81 81 79 78 80 79 79 80 64 64 68 79
103 103 105 108 111 108 102 101 100 96 94 93 91 90 90 89 88 85 83 80 81 81 80 77 79 80 79 77 76 63 62 67 79
104 105 106 106 108 109 103 100 101 94 92 90 89 89 89 89 88 85 83 81 81 79 79 77 75 75 77 70 74 62 59 66 75
102 103 101 102 103 103 98 98 96 91 91 88 90 90 89 87 86 84 84 80 81 77 74 73 74 73 73 74 73 74 57 57 75
95 96 98 99 97 97 96 96 91 88 87 89 89 89 87 85 84 85 82 78 77 75 73 74 74 71 72 75 77 64 57 55 57
92 92 94 97 94 90 92 90 90 86 86 88 87 86 83 82 83 83 79 75 72 72 73 75 74 75 72 73 74 75 55 53 54
90 90 89 90 88 86 86 88 87 84 85 86 85 82 80 79 77 76 77 76 74 76 73 71 70 70 71 76 72 75 70 66 60
88 88 88 88 85 84 83 84 83 84 83 84 82 80 79 76 77 77 72 67 67 74 72 68 76 72 71 71 73 72 58 60 66
84 84 85 84 83 81 82 81 81 82 83 82 80 78 78 75 75 75 78 74 68 46 48 45 47 50 68 69 54 47 45 45 46
74 81 81 81 81 82 81 81 80 82 82 82 80 81 79 82 80 83 82 81 78 73 58 46 44 44 45 50 50 45 45 42 43

GFSFLT1_sfc_temp_030.txt.gz
Temp
102 101 101 100 98 98 96 94 92 91 85 83 84 84 84 83 83 86 86 85 86 86 86 86 82 83 82 81 80 80 78 77 77
97 97 102 102 101 100 98 94 91 90 86 84 84 85 84 84 84 83 85 85 84 87 84 86 83 82 81 81 80 78 78 77 76
98 99 103 103 103 100 99 98 94 92 89 85 85 86 85 85 85 84 85 85 84 84 85 84 82 81 81 80 79 79 78 76 78
102 104 104 104 103 102 99 99 96 93 90 87 86 86 86 85 85 86 84 86 85 84 84 83 80 80 80 80 79 78 76 76 76
103 103 106 106 105 103 100 97 97 94 93 91 89 88 86 85 85 85 85 84 86 86 83 82 80 80 79 79 78 78 76 75 77
99 99 103 105 104 101 99 97 94 94 94 94 93 89 88 86 85 85 84 84 84 85 84 82 82 80 78 78 78 77 76 76 76
101 99 98 101 102 100 100 97 93 93 94 96 94 92 89 86 85 85 85 85 84 85 84 82 80 79 78 78 78 78 77 77 76
99 99 100 96 100 99 98 96 92 93 94 93 94 90 88 87 86 85 85 84 84 84 84 82 80 79 78 78 78 80 76 77 76
96 97 98 99 96 97 96 96 93 92 93 93 92 89 88 87 86 85 85 84 84 83 83 81 79 78 77 77 80 73 71 75 76
96 97 97 99 97 94 94 97 94 92 92 93 91 88 88 87 86 84 84 84 83 82 80 80 78 77 77 76 76 69 68 71 76
93 99 100 100 103 100 98 102 101 95 95 91 89 88 88 87 86 85 84 83 82 81 81 78 77 77 76 76 77 64 65 68 73
98 98 100 100 105 105 98 98 97 93 92 91 90 88 88 88 87 84 83 81 81 80 78 77 76 77 76 75 76 62 62 65 70
100 101 101 101 102 104 105 97 100 92 91 89 88 89 89 88 86 84 82 81 80 81 80 77 77 76 75 71 73 61 60 63 68
100 99 99 100 100 99 98 96 96 89 89 87 89 90 89 87 85 83 83 80 79 78 77 76 74 73 73 74 72 72 58 58 69
97 95 98 101 98 96 95 93 90 87 85 87 87 87 86 84 83 84 83 78 77 75 73 73 72 71 71 73 72 64 56 56 57
92 93 94 96 97 91 91 91 87 85 84 85 85 84 82 81 81 80 78 76 75 72 73 71 69 70 70 69 72 72 57 53 54
91 91 91 92 89 87 85 86 87 84 84 83 82 81 80 80 78 75 75 74 75 73 71 70 70 71 72 71 71 71 68 67 61
88 87 86 87 84 83 84 84 83 84 83 82 80 80 77 75 75 73 66 60 58 71 64 64 72 73 74 72 72 72 65 64 66
79 79 82 80 77 76 77 80 79 79 81 81 78 75 76 74 71 71 68 66 62 47 48 46 46 50 67 60 53 48 47 47 48
69 74 76 77 77 78 78 79 80 81 81 80 76 74 75 75 75 76 73 72 69 63 54 47 45 45 50 53 49 46 45 45 46

GFSFLT1_sfc_temp_033.txt.gz
Temp
89 88 93 92 91 90 88 88 85 83 80 80 81 80 80 80 80 78 79 77 76 78 79 78 76 76 77 77 74 72 71 69 70
85 89 91 93 92 91 89 88 85 84 80 80 80 81 81 80 80 80 79 77 78 77 77 79 77 77 77 76 73 72 70 69 69
84 83 90 94 94 92 90 90 88 86 82 81 81 81 82 82 81 81 80 76 78 77 78 77 78 78 77 75 73 72 70 69 70
90 92 92 93 94 94 90 90 89 87 83 82 81 82 82 82 81 81 80 80 78 76 79 77 77 78 75 74 73 73 71 69 69
90 93 94 96 95 94 91 89 89 87 83 82 83 83 82 81 81 81 80 81 81 82 78 77 78 77 75 75 73 73 71 70 72
90 90 85 95 96 93 91 89 88 88 86 83 84 83 83 81 80 81 81 80 81 81 80 77 77 76 75 74 74 73 73 72 69
89 85 89 84 95 93 92 91 88 88 87 87 85 84 83 81 81 81 82 82 81 78 80 79 76 76 76 75 74 74 72 71 69
87 86 85 83 91 90 90 89 87 88 88 88 87 84 83 82 82 82 82 81 80 81 79 80 77 75 74 74 74 75 71 71 70
82 86 87 84 84 87 87 87 86 87 87 88 88 85 83 83 82 81 81 80 80 79 80 79 76 74 73 72 76 70 70 72 71
92 90 86 85 84 84 83 87 89 87 87 89 87 86 84 83 82 81 80 80 80 78 79 78 75 74 73 70 73 68 67 70 71
82 85 89 85 89 83 82 83 89 90 89 87 85 84 83 83 82 81 80 80 79 79 80 75 74 74 74 70 70 65 64 68 72
86 91 88 86 84 87 86 84 88 87 87 85 85 82 82 82 82 81 80 80 79 78 76 76 74 71 70 70 71 64 62 64 67
82 85 87 86 88 87 83 83 87 86 86 85 83 85 83 84 83 82 80 80 78 76 75 74 72 71 72 70 73 62 61 62 66
79 80 84 86 85 85 81 81 86 84 85 85 85 85 82 82 83 81 80 78 78 76 73 72 71 71 72 73 74 67 58 58 67
79 79 81 81 79 80 82 79 84 82 82 83 80 81 81 79 79 80 78 76 74 73 73 71 69 69 67 68 70 64 57 56 60
80 80 80 81 78 76 77 77 82 81 77 81 81 79 78 78 78 77 76 72 71 70 69 68 66 67 66 66 68 68 57 55 56
76 76 76 76 75 74 75 76 77 78 79 80 79 76 76 73 73 72 71 70 71 70 70 69 67 67 66 65 66 64 60 58 57
73 73 74 74 74 74 74 76 76 78 79 78 76 75 71 70 69 64 59 56 63 67 60 64 69 68 67 65 65 64 60 59 60
71 71 71 71 72 73 73 75 75 75 74 73 71 69 69 66 65 63 61 60 55 47 48 46 48 51 60 55 55 51 50 50 51
65 69 69 69 69 70 70 70 69 73 72 70 70 69 67 66 65 66 64 62 60 56 53 47 45 45 48 51 47 46 46 46 47

GFSFLT1_sfc_temp_036.txt.gz
Temp
88 88 88 87 86 86 86 84 82 81 79 79 80 79 79 78 78 78 77 74 75 76 77 77 75 75 75 73 72 70 69 67 67
86 88 89 88 88 88 87 84 82 81 79 80 80 80 79 79 79 78 77 74 76 75 76 76 76 76 75 74 72 70 68 67 67
88 88 90 90 90 88 87 87 84 83 81 80 80 81 80 80 79 80 78 76 76 76 77 77 75 76 75 74 72 71 68 67 67
88 86 87 90 91 91 89 88 85 82 81 81 80 81 80 80 79 79 80 78 77 77 77 77 76 76 76 74 72 70 69 67 68
88 87 89 90 93 93 89 87 87 83 82 81 81 81 81 80 80 79 79 79 80 78 78 75 77 77 76 74 73 71 70 68 70
81 82 82 86 91 89 88 87 87 85 83 82 82 82 81 80 79 79 79 79 80 78 78 74 75 76 75 74 73 72 71 70 68
81 82 84 80 84 89 90 87 87 86 84 83 83 82 81 79 79 79 79 80 79 80 80 75 75 75 75 75 74 73 72 71 68
84 86 83 88 90 90 90 87 86 86 86 84 84 81 80 80 80 80 80 79 79 79 79 79 76 75 74 73 73 74 71 72 70
82 82 82 83 88 92 90 88 86 86 86 84 84 81 80 81 80 79 79 79 78 78 77 78 74 74 73 71 75 70 68 72 71
79 85 80 79 80 90 90 89 88 85 85 86 83 82 81 81 80 78 78 79 78 76 77 76 72 72 72 71 74 67 67 69 70
78 82 83 80 81 85 89 90 88 87 86 84 82 81 81 81 79 79 79 78 77 76 77 76 73 72 72 71 72 65 64 67 71
79 81 82 83 82 85 84 82 87 85 83 83 82 81 81 81 80 79 78 77 77 77 77 76 74 72 72 71 71 63 63 64 69
79 81 80 80 80 80 80 86 87 85 82 82 81 82 82 81 81 79 78 78 78 78 77 75 73 72 73 70 72 61 60 62 66
74 78 79 81 78 81 84 83 82 82 82 81 84 84 83 82 81 80 80 79 79 76 76 73 72 71 70 69 68 66 59 58 67
74 75 77 76 77 77 76 77 83 81 80 84 84 83 81 80 80 81 80 79 76 75 74 72 70 67 67 68 69 61 56 56 60
74 76 76 75 75 74 74 72 81 80 82 83 79 81 80 79 80 80 79 76 74 73 72 69 68 67 66 66 68 65 57 55 57
70 71 72 72 73 73 73 72 74 81 77 78 80 80 77 77 77 75 75 75 73 71 70 68 67 67 66 66 66 65 61 58 57
69 70 70 71 70 70 70 71 72 73 76 78 75 75 74 73 72 72 66 60 65 69 65 66 67 67 67 65 65 64 59 58 60
67 68 69 69 69 70 70 71 71 73 75 74 73 71 68 66 65 63 61 60 56 49 50 51 49 54 61 58 56 50 49 47 48
64 67 67 68 68 68 69 68 69 69 70 70 70 67 66 64 63 62 61 60 58 56 51 46 46 45 48 51 49 47 46 45 46

GFSFLT1_sfc_temp_042.txt.gz
Temp
81 81 82 81 82 82 80 79 78 77 75 74 75 75 75 76 76 76 77 75 75 75 75 75 75 75 75 74 73 73 70 70 69
80 81 82 82 83 84 82 80 78 77 76 75 75 75 75 75 76 76 76 75 74 75 75 76 75 75 75 74 73 72 70 70 69
78 80 82 83 84 84 84 83 81 80 78 76 77 76 77 77 77 76 77 76 73 74 74 75 74 75 75 73 73 71 70 69 69
78 79 81 83 84 85 84 84 82 80 79 77 77 77 77 77 77 77 77 77 75 75 74 74 74 74 74 74 72 71 70 69 69
76 78 81 83 85 85 84 82 83 81 80 79 79 78 77 77 77 77 76 76 76 75 74 74 74 74 74 74 73 72 71 70 71
73 74 76 81 83 83 83 82 81 81 81 81 81 80 78 77 77 76 76 77 77 75 75 74 74 74 74 74 74 72 72 72 71
74 72 73 77 81 83 83 82 81 80 80 82 81 81 79 77 76 76 77 77 77 76 76 75 74 74 74 74 74 74 73 72 71
72 73 73 73 80 81 80 80 79 80 80 80 80 78 78 77 77 77 77 77 77 77 76 76 75 74 75 75 75 76 73 73 72
71 72 73 74 76 78 78 80 79 80 79 79 79 77 77 77 77 76 76 76 76 76 76 76 75 75 75 74 77 71 69 73 73
70 72 73 73 75 77 79 80 80 79 80 80 78 77 77 77 76 75 76 76 75 75 75 75 75 75 75 74 75 67 67 69 74
72 71 73 75 78 79 80 83 83 81 82 78 77 77 77 77 76 76 76 76 75 75 76 75 75 74 75 74 75 65 64 68 73
74 74 74 79 82 83 82 81 83 79 78 79 78 77 76 77 77 76 76 75 75 76 76 76 76 76 74 73 73 62 62 65 71
72 72 72 72 75 76 76 76 78 77 77 77 75 76 77 78 77 76 76 76 76 77 77 77 77 75 75 71 74 60 60 64 70
72 74 74 71 71 73 76 74 76 76 76 75 78 79 79 78 78 77 77 77 77 77 77 77 76 75 74 73 72 69 58 60 70
70 71 73 72 71 69 68 72 74 73 73 77 77 76 77 77 77 78 79 77 76 76 76 75 75 74 72 71 72 62 55 59 61
68 69 69 68 67 67 68 69 71 71 69 74 73 74 73 75 77 77 78 76 75 75 75 75 74 73 72 71 71 63 56 56 58
68 68 69 70 69 69 69 71 70 71 71 72 72 71 72 73 73 73 75 76 76 75 74 74 73 72 71 69 68 66 62 62 62
68 68 69 70 70 69 69 70 71 72 72 72 72 70 69 69 69 62 60 57 60 63 60 68 68 68 68 66 65 61 55 57 63
66 66 69 68 68 69 69 69 69 71 72 72 71 69 69 66 63 62 64 62 59 50 52 51 51 53 59 62 56 51 52 50 50
62 65 65 65 66 66 66 67 68 69 69 69 67 65 64 63 63 65 64 64 62 59 56 50 51 52 53 54 51 54 50 46 48

GFSFLT1_sfc_temp_045.txt.gz
Temp
89 87 88 87 88 88 86 86 85 84 81 79 80 81 80 80 81 84 84 84 86 86 87 87 86 84 85 84 84 83 81 82 82
88 88 88 88 89 90 89 86 84 84 81 79 80 81 80 80 81 81 83 83 83 86 85 88 86 85 84 84 84 83 81 83 79
88 90 90 90 91 90 90 89 87 86 83 80 81 82 82 82 82 82 83 83 82 83 85 84 86 84 84 84 83 82 80 82 80
90 91 92 92 92 92 91 91 89 86 85 83 82 82 82 82 82 83 83 84 83 83 84 83 84 84 84 83 82 82 80 80 81
91 92 93 93 94 92 91 90 90 88 87 85 84 84 82 82 82 83 83 83 84 84 82 83 83 84 84 83 83 82 80 80 81
87 87 88 90 92 91 89 89 87 88 88 89 88 85 84 82 82 82 81 82 83 84 82 83 83 83 83 83 83 82 81 81 80
87 86 87 88 88 89 89 88 86 86 87 90 89 87 85 81 80 81 82 82 82 83 82 82 82 82 83 83 84 83 83 81 80
84 85 85 85 87 88 86 86 85 85 87 87 88 84 84 82 82 82 82 82 82 83 83 82 82 82 82 83 84 86 82 82 81
86 86 88 88 86 87 86 86 85 84 85 86 86 83 83 82 82 81 81 81 82 82 82 82 82 81 82 82 86 75 71 79 82
84 85 88 89 86 86 86 87 86 85 84 86 84 82 82 82 82 80 80 82 81 80 81 82 81 81 81 81 82 69 68 70 84
88 90 89 90 91 90 89 91 91 87 88 84 82 82 82 82 82 80 81 81 80 80 82 81 81 81 81 81 82 67 66 69 81
87 89 91 90 94 94 91 90 90 86 86 84 83 82 82 82 82 81 81 80 79 80 81 81 81 82 81 80 81 64 63 68 80
87 89 90 89 91 91 91 87 92 85 84 83 82 83 83 83 82 81 80 80 80 81 81 82 84 83 82 77 81 64 61 67 82
86 88 87 87 87 87 86 88 87 83 84 83 84 86 86 84 83 81 81 81 81 81 81 82 81 81 82 82 78 78 59 60 79
83 84 85 86 84 84 84 83 82 82 81 84 86 86 85 83 83 84 84 80 78 81 78 75 78 79 78 78 78 64 57 58 63
83 83 83 83 81 79 79 81 81 81 82 83 83 82 82 82 82 83 83 81 80 80 79 76 76 76 76 74 73 73 57 55 57
80 80 79 80 78 74 73 76 80 81 81 82 82 81 81 82 81 80 82 84 84 82 82 80 75 75 74 73 72 69 63 60 60
72 71 73 75 74 74 73 76 77 79 80 81 81 82 82 80 83 77 72 68 72 81 81 79 81 76 73 67 62 60 58 60 64
71 70 72 72 72 72 73 77 76 74 78 80 79 77 76 69 68 68 66 64 61 51 52 52 52 53 60 62 53 49 50 50 50
63 68 68 68 68 69 71 73 71 72 73 72 70 69 67 66 67 66 65 67 67 61 57 49 49 51 51 53 54 51 51 51 49

GFSFLT1_sfc_temp_048.txt.gz
Temp
99 98 97 97 96 96 95 94 94 92 89 85 86 86 85 86 86 89 90 90 93 94 94 95 93 90 90 89 90 89 88 89 88
99 99 98 98 99 98 97 95 93 91 89 86 86 87 86 86 86 86 90 89 90 92 92 96 93 91 89 90 89 89 87 89 87
99 102 101 100 100 99 99 98 96 93 91 87 87 88 88 88 87 87 88 89 88 90 92 91 93 90 90 89 89 88 87 89 88
100 102 102 101 101 101 100 100 98 95 92 90 88 89 89 88 89 89 88 89 89 89 89 90 89 90 89 89 89 88 86 86 88
102 103 105 104 104 102 101 99 100 98 95 93 91 91 89 88 88 89 89 88 89 90 88 89 89 89 89 89 89 88 86 86 88
98 100 101 103 105 103 101 100 97 98 97 97 96 92 90 89 88 88 88 88 88 89 88 88 89 89 88 88 89 89 88 87 87
96 96 96 99 100 102 102 100 98 95 98 98 98 95 92 89 87 87 89 88 87 88 88 88 88 88 88 89 89 90 90 88 87
94 93 95 97 98 100 98 98 96 95 96 96 98 94 93 89 88 88 88 88 88 88 88 88 88 88 89 89 91 92 89 89 88
93 95 98 98 97 98 98 96 95 94 93 94 94 93 91 89 88 88 87 87 87 87 87 88 87 87 88 88 92 81 74 84 89
92 94 97 98 98 98 98 98 96 94 93 93 92 91 90 89 88 87 86 87 87 86 86 87 86 87 87 87 88 73 71 73 89
92 95 97 98 102 104 102 103 104 97 96 91 90 88 89 89 88 87 87 86 86 85 87 86 86 86 87 87 89 70 68 71 86
95 95 98 101 105 107 105 104 103 98 94 93 90 88 87 89 89 87 86 85 85 86 86 86 86 87 86 86 87 66 64 69 86
97 99 99 99 101 104 104 102 104 97 93 91 89 89 89 90 89 87 86 86 85 87 87 86 90 88 88 80 86 69 61 67 86
90 91 92 96 96 96 98 100 98 95 92 90 91 93 92 90 90 87 87 87 87 86 86 86 85 84 87 85 83 82 60 59 75
85 87 90 94 95 93 96 95 92 91 88 91 91 92 91 90 89 90 91 86 86 85 84 82 82 82 79 81 80 69 64 56 64
84 86 89 94 94 92 92 91 89 88 88 90 90 89 89 89 88 88 89 86 84 85 84 86 84 85 84 85 86 86 57 55 58
85 88 89 93 89 89 88 88 87 87 88 89 88 86 87 88 87 86 87 90 89 88 88 87 87 87 87 89 93 87 80 74 63
85 87 87 88 88 86 84 85 86 89 87 87 86 87 88 87 89 85 87 85 85 91 91 86 91 91 91 91 87 77 64 64 64
78 77 80 82 80 83 85 80 77 86 87 87 87 87 88 90 92 88 87 82 74 51 50 48 48 53 72 79 59 50 49 49 51
64 69 71 72 73 74 75 74 73 75 80 86 85 86 83 85 81 81 81 82 83 74 58 49 46 45 47 50 50 47 47 48 49